Hourly Data Report for October 25, 2015

All times are specified in Local Standard Time (LST). Add 1 hour to adjust for Daylight Saving Time where and when it is observed.

HALL BEACH A
NUNAVUT

68°46'33.000" N
81°14'33.000" W
9.10 m
2402354
71293
YUX

Download Data

Hourly Data (October 2015)
Hourly Data Report for October 25, 2015
Temp Definition
°C
Dew Point Temp Definition
°C
Rel Hum Definition
%
Wind Dir Definition
10's deg

Wind Spd Definition
km/h
Visibility Definition
km
Stn Press Definition
kPa
Hmdx Definition


Wind Chill Definition


Weather Definition


TIME
00:00 Legend Double Dagger -15.3 -17.4 84 31 37 16.1 98.94   -27 LegendNANA
01:00 Legend Double Dagger -15.6 -17.7 84 30 34 16.1 98.91   -27 LegendNANA
02:00 Legend Double Dagger -16.0 -18.1 84 30 32 16.1 98.86   -28 LegendNANA
03:00 Legend Double Dagger -16.3 -18.4 84 29 35 16.1 98.83   -29 LegendNANA
04:00 Legend Double Dagger -16.0 -18.1 84 30 34 16.1 98.80   -28 LegendNANA
05:00 Legend Double Dagger -16.3 -18.5 84 29 30 16.1 98.79   -28 LegendNANA
06:00 Legend Double Dagger -16.0 -18.3 83 29 30 16.1 98.75   -27 LegendNANA
07:00 Legend Double Dagger -16.2 -18.5 83 30 28 16.1 98.74   -27 LegendNANA
08:00 Legend Double Dagger -16.3 -18.4 84 30 30 16.1 98.71   -28 LegendNANA
09:00 Legend Double Dagger -14.8 -17.0 83 30 34 16.1 98.67   -26 LegendNANA
10:00 Legend Double Dagger -13.5 -15.7 84 30 35 6.4 98.64   -25 Haze
11:00 Legend Double Dagger -13.0 -14.7 87 30 35 2.8 98.61   -24 Snow
12:00 Legend Double Dagger -12.6 -14.3 88 30 39 1.6 98.59   -24 Snow
13:00 Legend Double Dagger -12.1 -13.7 88 30 34 2.4 98.56   -23 Snow
14:00 Legend Double Dagger -12.0 -13.5 89 30 37 2.4 98.53   -23 Snow
15:00 Legend Double Dagger -11.8 -13.3 89 30 32 2.4 98.51   -22 Snow
16:00 Legend Double Dagger -11.6 -12.9 90 30 37 1.2 98.50   -23 Snow
17:00 Legend Double Dagger -11.8 -13.1 90 30 35 1.6 98.50   -23 Snow
18:00 Legend Double Dagger -12.2 -13.5 90 30 34 2.4 98.50   -23 Snow
19:00 Legend Double Dagger -11.9 -13.2 90 29 30 4.8 98.47   -22 Snow
20:00 Legend Double Dagger -12.3 -13.6 90 30 15 8.1 98.46   -20 Snow
21:00 Legend Double Dagger -14.4 -15.5 92 30 9 16.1 98.44   -20 LegendNANA
22:00 Legend Double Dagger -13.0 -13.9 93 18 8 16.1 98.45   -18 Snow
23:00 Legend Double Dagger -14.7 -16.0 90 27 5 16.1 98.50   -18 LegendNANA

Notes on Data Quality.

Legend

  • E = Estimated
  • M = Missing
  • NA = Not Available
  • ‡ = Partner data that is not subject to review by the National Climate Archives
Date modified: